Location: Hopville
(44.8032°N, 123.1329°W)
Time: 17:20:12
(UTC+00:00)

Atlas Centaur 2 - Pass Details

Date: 24 January 2021
Orbit: 459 x 1309 km, 30.4° (Epoch: 01 March)

Event Time Altitude Azimuth Distance (km) Brightness Sun altitude
Exits shadow 13:11:00 22° 207° (SSW) 2,279 4.2 -26.2°
Maximum altitude 13:13:47 27° 175° (S) 2,114 4.3 -25.8°
Drops below altitude 10° 13:20:27 10° 122° (ESE) 3,280 6.0 -24.6°
Sets 13:23:59 0° 112° (ESE) 4,285 7.1 -23.9°
